グレーラー彗星

P/2019 B2 ( Groeller )

English version
Home page
Updated on November 7, 2020

---------------------------------------------------------------------

・ プロフィール

発見日 2019年1月26日
発見光度 18.0等
発見者 H. Groeller (Catalina Sky Survey)

・ 写真集

・ 軌道要素

Epoch 2019 June 6.0 TT = JDT 2458640.5
T 2019 June 8.05557 TT                                  Rudenko
q   2.4164636            (2000.0)            P               Q
n   0.13033394     Peri.  358.71863     -0.99651921     -0.08142298
a   3.8526927      Node   176.45896     +0.07882883     -0.99016119
e   0.3727858      Incl.   16.82944     +0.02711978     -0.11380298
P   7.56
From 166 observations 2019 Jan. 4-July 4, mean residual 0".8.

・ 光度変化

        m1 = 0.5 + 5 logΔ + 40 log r

---------------------------------------------------------------------

軌道要素はM.P.E.C. 2020-U96に掲載されたものです。
光度グラフはComet for Windowsで作成したものです。

---------------------------------------------------------------------

Copyright(C) Seiichi Yoshida (comet@aerith.net). All rights reserved.